Dewpoint
-2 -4 -5 -4 -4 -4 -4 -4 -4 -5 -5 -4 -4 -4 -4 -2 1 1 1 1 1 2 3 5 4 1 0 1 5 6 6 6 6 5 6 5 3 4 4 4 3 3 4 3 4 3 2 0 -2 -1 -1 0 -0 -0
-3 -4 -4 -4 -4 -4 -4 -4 -4 -4 -3 -3 -1 -0 -0 1 1 1 1 0 1 2 4 4 5 4 5 0 4 6 4 6 7 7 6 5 6 3 4 6 4 4 2 3 3 3 2 0 0 0 0 1 2 1
-3 -4 -5 -4 -4 -4 -4 -3 -3 -2 -1 -1 -1 0 0 0 1 0 -1 -2 0 1 2 3 4 7 5 3 2 5 6 5 6 5 7 6 5 3 4 3 3 2 4 4 2 4 4 3 3 2 1 2 2 2
-3 -4 -4 -4 -4 -4 -5 -2 -1 -1 -1 -1 -2 -0 -2 -1 -0 -2 -2 1 -0 3 3 3 5 8 5 5 4 3 2 4 4 3 5 4 5 4 3 4 3 3 1 2 5 4 3 3 2 2 2 2 2 2
-2 -2 -2 -3 -4 -5 -6 -4 -2 -3 -4 -5 -7 -5 -5 -5 -3 -2 -2 0 1 3 4 4 6 7 6 5 4 3 2 2 7 3 3 5 5 4 3 2 2 1 1 2 4 3 2 2 1 1 1 1 1 1
-2 -2 -3 -4 -6 -6 -5 -3 -2 -3 -5 -7 -7 -8 -7 -2 -2 -0 1 0 1 3 4 4 3 8 7 7 4 6 4 6 6 5 5 5 6 2 2 2 3 3 3 1 3 3 1 1 1 0 0 0 -0 -0
-2 -3 -3 -4 -5 -6 -7 -6 -5 -5 -6 -7 -7 -5 -3 -2 -2 0 0 -0 -1 2 3 4 5 7 7 7 7 8 8 7 6 7 6 4 6 3 2 3 3 3 3 3 3 1 1 0 0 0 0 0 -0 -1
-2 -2 -3 -3 -4 -4 -4 -4 -5 -5 -5 -5 -3 -3 -3 -2 -1 1 3 5 4 3 2 4 5 6 7 7 7 7 7 6 5 5 5 2 5 2 3 3 2 3 2 2 2 2 1 1 0 -0 -1 -2 -3 -4
-1 -1 -2 -2 -3 -3 -3 -4 -5 -5 -5 -4 -0 1 2 1 3 2 2 5 4 4 4 3 5 6 6 5 6 6 5 4 4 3 3 3 2 3 3 2 1 2 2 1 1 1 0 -0 -1 -2 -2 -3 -3 -4
3 1 -0 -1 -1 -0 -0 0 1 0 1 1 1 3 3 2 1 2 3 4 5 4 4 3 5 5 5 4 3 4 4 3 4 4 4 2 2 1 2 2 1 1 1 1 0 -0 -1 -1 -2 -2 -3 -3 -3 -4
5 4 4 3 3 3 3 2 2 1 1 3 3 4 3 4 4 3 4 2 3 1 3 4 4 4 4 3 3 3 3 0 4 4 3 3 3 1 2 1 1 1 0 0 0 -0 -1 -2 -2 -2 -2 -3 -5 -9
6 6 5 4 4 4 4 4 3 3 4 4 4 5 5 4 2 1 2 1 2 2 2 3 4 4 4 3 2 2 2 -0 3 2 4 3 1 1 1 1 1 0 0 -0 -0 -1 -1 -2 -2 -3 -4 -8 -11 -13
5 5 6 5 5 5 5 4 5 5 4 4 3 2 2 1 2 -1 1 2 2 1 3 3 2 3 2 2 2 2 1 1 0 2 1 2 1 0 0 1 0 0 -0 -1 -1 -1 -2 -2 -3 -4 -10 -11 -12 -12
4 4 5 6 6 5 5 4 4 4 2 1 0 1 1 1 0 0 1 1 0 2 3 3 2 2 2 2 1 3 2 2 1 2 1 1 0 -0 -0 -1 -0 -1 -1 -1 -1 -1 -2 -3 -7 -9 -9 -10 -12 -16
4 3 3 3 3 3 4 4 3 1 0 -0 -0 1 -0 -1 -1 -1 -0 0 1 2 2 2 2 2 1 2 1 1 2 2 -0 0 1 1 -1 -1 -1 -2 -1 -2 -2 -2 -2 -2 -6 -9 -8 -7 -9 -12 -16 -16
2 3 3 3 2 2 1 1 1 0 -2 -1 -2 -0 -0 0 -1 -1 -0 0 1 2 2 2 1 1 2 1 1 2 0 2 1 -0 -0 0 -1 -1 -2 -2 -2 -2 -3 -6 -9 -10 -8 -10 -10 -11 -13 -15 -15 -16
2 2 2 2 2 2 1 1 0 -2 -2 -2 -2 -2 -1 -2 -2 -2 -1 -0 1 1 1 -0 2 2 0 2 1 0 0 -0 -1 -0 -0 -0 -2 -2 -2 -2 -3 -4 -7 -5 -5 -6 -8 -9 -11 -12 -14 -14 -14 -15
-11 -6 2 1 0 2 -0 -2 -1 -2 -2 -2 -2 -2 -2 -2 -2 -2 -1 -0 1 0 0 1 1 -1 -1 0 0 -1 -2 -1 -1 -1 -1 -2 -2 -2 -3 -3 -3 -4 -5 -5 -4 -5 -7 -10 -11 -12 -13 -14 -14 -15
-14 -17 -13 1 1 -3 -3 -3 -3 -2 -2 -2 -2 -2 -2 -3 -3 -3 -1 -1 -1 -1 -2 -3 -4 -3 -3 -3 -2 -2 -2 -3 -3 -3 -3 -2 -2 -3 -3 -3 -3 -5 -5 -5 -6 -8 -10 -11 -11 -12 -14 -17 -20 -21
-19 -13 -14 -11 -5 -5 -3 -3 -3 -3 -2 -2 -2 -3 -3 -3 -4 -4 -4 -4 -4 -5 -4 -4 -5 -6 -5 -4 -3 -2 -3 -3 -3 -3 -3 -3 -3 -3 -3 -4 -4 -5 -6 -7 -8 -9 -10 -11 -13 -14 -19 -22 -23 -24
-23 -17 -15 -11 -6 -4 -2 -2 -2 -3 -2 -2 -2 -2 -3 -5 -7 -7 -7 -8 -7 -5 -5 -6 -7 -7 -6 -3 -3 -3 -3 -2 -3 -3 -4 -4 -4 -4 -5 -5 -6 -7 -7 -8 -9 -10 -10 -10 -13 -19 -23 -24 -24 -23
-21 -22 -17 -9 -6 -5 -4 -3 -3 -3 -3 -2 -2 -3 -3 -3 -4 -8 -9 -7 -6 -7 -7 -7 -7 -7 -6 -6 -5 -4 -4 -3 -4 -4 -5 -5 -6 -6 -7 -7 -7 -8 -9 -9 -10 -10 -11 -12 -16 -21 -22 -23 -24 -26
-26 -20 -12 -8 -8 -7 -6 -6 -5 -4 -5 -4 -4 -4 -4 -4 -3 -9 -7 -8 -9 -9 -8 -8 -8 -8 -7 -7 -6 -6 -6 -5 -6 -6 -6 -7 -7 -8 -8 -9 -9 -9 -10 -11 -12 -12 -12 -16 -21 -23 -26 -27 -27 -27
-15 -8 -6 -5 -5 -6 -7 -6 -6 -5 -5 -7 -6 -6 -6 -4 -9 -8 -8 -10 -11 -10 -9 -9 -9 -9 -9 -9 -9 -9 -9 -8 -8 -9 -9 -9 -9 -10 -10 -11 -11 -11 -12 -12 -13 -16 -20 -23 -26 -26 -27 -27 -26 -24
-9 -7 -8 -10 -7 -7 -9 -7 -9 -8 -8 -8 -9 -7 -7 -6 -8 -8 -9 -11 -12 -11 -11 -11 -10 -11 -11 -11 -11 -11 -10 -10 -10 -10 -11 -11 -11 -11 -12 -12 -12 -13 -13 -16 -22 -25 -27 -27 -27 -26 -26 -24 -22 -21
-7 -6 -7 -6 -6 -7 -8 -6 -9 -6 -10 -10 -7 -6 -5 -12 -12 -10 -11 -12 -13 -12 -12 -12 -12 -12 -12 -12 -12 -12 -12 -12 -11 -12 -12 -12 -12 -13 -13 -13 -15 -17 -21 -24 -25 -25 -24 -24 -23 -23 -22 -21 -20 -19
-8 -7 -6 -6 -5 -5 -7 -6 -7 -9 -10 -7 -9 -12 -9 -13 -12 -11 -12 -12 -13 -13 -13 -13 -12 -13 -13 -13 -13 -14 -14 -14 -14 -14 -15 -15 -17 -18 -18 -21 -23 -23 -24 -24 -23 -23 -22 -22 -21 -21 -21 -21 -20 -20
-5 -5 -6 -8 -8 -7 -10 -10 -12 -10 -11 -8 -9 -13 -15 -15 -13 -13 -13 -13 -13 -13 -14 -14 -14 -14 -14 -14 -14 -14 -14 -15 -15 -16 -16 -17 -18 -19 -22 -25 -25 -24 -22 -21 -21 -21 -20 -20 -20 -20 -21 -21 -21 -21
-6 -6 -7 -9 -9 -9 -8 -9 -8 -9 -9 -9 -13 -14 -14 -15 -15 -14 -14 -14 -14 -14 -14 -15 -15 -15 -16 -22 -21 -19 -16 -16 -16 -19 -21 -24 -24 -24 -25 -23 -22 -21 -20 -20 -20 -20 -21 -21 -21 -21 -22 -22 -22 -22
-8 -7 -8 -9 -11 -10 -8 -10 -10 -10 -12 -14 -15 -15 -16 -16 -15 -15 -15 -15 -15 -15 -16 -15 -15 -15 -16 -18 -18 -18 -19 -22 -24 -25 -24 -24 -24 -23 -22 -22 -21 -21 -21 -21 -21 -21 -21 -21 -22 -22 -22 -22 -23 -23
-9 -8 -8 -8 -9 -8 -9 -10 -12 -13 -13 -14 -15 -17 -17 -16 -16 -16 -16 -16 -16 -16 -16 -17 -20 -19 -18 -18 -19 -20 -20 -22 -24 -24 -24 -23 -22 -22 -22 -22 -21 -21 -21 -21 -21 -21 -21 -21 -22 -22 -23 -23 -23 -23
-9 -8 -8 -11 -9 -9 -9 -9 -9 -11 -11 -12 -13 -15 -15 -16 -17 -17 -18 -17 -17 -17 -18 -18 -17 -17 -17 -18 -18 -22 -24 -24 -23 -23 -23 -23 -23 -23 -23 -23 -22 -23 -23 -23 -22 -22 -22 -22 -22 -23 -23 -24 -24 -24
-9 -11 -11 -9 -9 -8 -10 -9 -10 -11 -12 -12 -13 -14 -15 -17 -17 -18 -18 -17 -18 -18 -18 -18 -18 -18 -18 -19 -20 -23 -23 -24 -24 -25 -25 -24 -25 -25 -24 -24 -24 -24 -24 -24 -23 -23 -23 -23 -23 -23 -24 -24 -24 -24
Wind_Speed
38 39 38 37 35 33 33 34 35 36 35 36 38 38 36 48 52 52 36 34 15 5 13 4 16 20 34 30 9 7 6 1 3 3 4 4 3 5 4 6 7 7 6 3 3 3 6 8 5 7 7 15 19 16
35 34 34 33 34 31 30 31 32 32 34 35 36 38 49 47 53 42 25 27 26 13 9 16 14 21 22 38 25 18 5 8 9 4 2 2 2 2 4 3 3 2 7 6 8 5 3 3 12 23 25 24 16 16
28 29 27 30 30 28 27 24 27 29 31 31 31 43 48 41 44 40 21 24 23 16 24 23 17 9 26 31 36 13 6 11 8 8 4 3 3 4 4 4 4 1 6 4 5 4 5 19 22 23 21 20 17 14
25 25 26 28 28 25 25 24 26 30 31 28 24 33 31 31 33 37 26 13 20 4 2 10 6 10 17 28 39 35 20 20 20 16 5 4 4 6 4 4 5 6 8 6 5 2 15 13 18 22 21 18 15 14
24 26 27 29 29 29 28 26 28 29 26 26 25 31 28 30 32 24 17 22 18 14 2 10 14 10 15 28 32 28 26 30 18 6 4 3 4 3 2 3 1 4 6 5 5 19 9 10 18 20 18 16 15 15
24 27 29 30 31 30 27 27 29 28 27 24 24 28 22 30 27 20 11 26 33 26 6 3 8 9 15 16 21 20 29 17 9 6 3 4 4 4 3 2 1 5 8 17 10 25 19 24 19 15 16 16 15 16
23 26 27 28 30 29 28 27 27 27 26 23 23 21 21 28 24 23 7 10 35 23 3 4 3 3 18 17 11 11 11 12 7 3 3 3 2 4 2 3 10 15 17 20 28 32 23 22 14 17 17 18 18 22
27 26 26 27 28 29 28 29 30 28 27 25 20 17 20 24 25 29 14 11 8 20 4 4 3 4 11 4 4 6 4 8 7 6 4 2 3 3 2 5 22 25 27 28 24 5 22 24 23 21 21 26 29 29
25 29 29 31 31 30 31 30 28 28 26 26 29 28 21 28 18 27 25 19 13 13 5 4 3 3 6 6 6 6 3 3 3 3 1 1 2 1 1 16 23 30 13 25 19 22 27 26 25 25 27 28 28 25
21 17 18 23 22 24 30 32 31 33 35 33 34 14 6 12 15 28 15 7 11 10 7 1 2 2 4 3 4 3 5 2 2 1 1 3 2 3 10 18 21 15 26 29 32 23 26 26 29 29 25 23 24 21
27 24 21 22 25 30 35 39 41 47 42 26 9 4 8 18 16 13 6 3 2 2 4 4 5 3 5 4 2 4 2 2 3 2 3 1 2 3 14 19 21 24 24 17 12 24 23 28 31 28 25 21 19 17
31 30 28 27 31 32 35 40 47 47 19 13 13 16 14 8 7 5 2 2 4 1 3 2 5 6 5 4 3 3 3 3 2 4 3 2 2 15 16 16 19 21 18 19 22 26 29 27 26 24 20 19 17 16
36 34 33 33 37 42 49 35 17 27 30 10 4 4 5 6 7 4 2 2 2 3 1 2 3 4 4 6 5 3 4 2 2 2 4 1 9 18 16 19 25 25 25 27 29 29 29 26 21 18 21 18 17 16
31 37 35 34 41 47 11 34 34 20 7 6 6 6 4 3 3 2 1 2 2 2 12 10 4 3 4 3 2 3 1 1 1 2 4 3 14 20 25 29 30 31 29 29 29 27 25 21 20 19 17 16 14 12
21 22 21 23 20 20 16 22 9 3 6 7 7 5 4 2 6 4 5 5 6 6 7 6 6 4 2 3 2 3 2 4 4 3 2 14 22 27 28 32 32 33 31 29 26 22 22 21 20 19 16 13 10 8
17 20 18 14 12 10 11 9 7 7 7 6 9 4 5 3 5 8 9 7 5 6 5 4 3 3 2 3 2 2 4 2 1 1 14 24 27 30 32 31 30 25 24 25 24 21 17 17 19 17 15 10 8 5
17 23 17 13 10 9 6 7 9 11 8 6 5 13 7 8 6 5 8 8 5 3 2 2 4 2 1 3 3 3 2 1 5 14 20 27 30 31 31 28 24 26 24 22 19 19 19 17 15 14 12 9 5 1
25 14 10 12 15 10 23 15 9 8 9 10 5 13 19 17 9 14 14 10 3 4 3 3 4 5 4 3 2 2 5 13 16 21 25 27 29 27 26 24 18 20 21 21 22 19 18 18 15 12 9 8 4 3
19 14 9 7 7 7 8 9 8 6 10 6 14 16 15 18 25 21 17 17 19 14 7 6 5 3 3 4 5 10 11 14 20 24 25 24 25 23 21 21 21 23 24 23 21 20 18 14 11 9 7 6 6 5
14 18 14 8 6 7 7 7 7 8 5 5 14 21 16 15 19 25 27 26 23 10 8 5 4 9 7 9 8 10 17 21 26 26 24 23 21 23 23 23 22 21 20 19 18 17 15 12 9 6 5 4 5 7
12 16 13 23 30 16 8 6 8 6 6 6 8 9 10 24 29 25 26 23 21 8 6 12 15 21 20 16 14 14 14 16 19 22 24 22 20 19 19 18 18 18 19 18 16 14 10 6 3 3 4 6 8 9
17 12 15 16 11 8 10 12 6 5 5 4 4 6 5 5 10 16 21 17 10 12 12 15 18 21 24 24 19 18 16 14 16 18 18 18 18 16 14 13 13 15 14 11 8 7 5 2 3 5 7 8 10 12
13 14 12 15 9 9 5 9 6 6 3 2 3 4 4 5 6 7 7 10 11 22 15 17 15 16 19 18 19 19 17 17 19 16 14 14 13 13 13 12 10 9 9 7 4 2 0 3 6 8 10 12 13 13
14 10 9 8 12 4 5 7 6 5 5 4 3 3 3 4 6 7 4 5 15 18 20 15 14 15 16 19 21 19 17 12 14 15 12 9 10 10 8 8 7 6 5 2 2 3 5 8 10 12 13 14 13 12
9 12 9 7 10 6 5 5 7 5 3 4 4 4 3 5 3 4 3 6 16 19 17 16 15 16 17 16 15 15 12 10 10 10 12 10 9 9 8 7 5 4 3 3 5 8 10 12 13 14 14 14 13 12
7 10 5 8 5 4 1 3 4 4 3 4 3 3 4 4 5 4 3 8 12 13 13 13 13 13 16 14 12 12 12 11 6 8 12 8 6 5 5 4 4 4 7 10 11 12 13 13 14 13 13 12 12 12
6 6 7 9 4 3 4 7 7 7 4 5 3 5 3 5 4 3 5 9 9 10 8 9 10 11 11 11 11 11 10 9 8 10 9 7 6 5 4 6 7 9 10 12 13 13 13 13 12 12 12 11 12 13
7 9 5 12 9 14 4 4 4 4 3 9 4 6 3 3 3 4 7 5 8 8 10 12 11 9 8 7 6 5 5 7 7 6 4 5 6 9 12 14 13 13 13 15 15 15 15 16 16 16 15 16 13 8
7 7 5 8 6 8 9 5 5 6 9 5 3 3 4 5 11 10 7 5 2 3 5 5 6 7 9 8 8 9 7 4 4 6 7 9 12 13 14 14 14 15 16 17 15 16 13 13 15 17 17 15 14 12
8 10 3 6 5 3 6 7 10 7 13 12 11 19 20 16 12 6 5 4 5 7 7 5 3 2 5 6 6 5 6 7 8 9 11 12 13 15 15 16 16 17 18 18 19 18 16 16 15 13 12 12 13 15
4 6 5 6 4 7 14 12 15 17 17 12 13 19 14 11 14 11 12 9 4 4 4 5 4 4 3 4 6 9 11 12 13 14 15 16 16 16 16 16 16 16 17 17 17 19 20 19 19 18 16 13 15 16
6 7 3 3 4 6 7 6 4 11 9 10 10 9 8 4 4 3 7 6 4 3 6 6 4 5 5 7 10 14 14 15 17 19 19 19 19 18 17 16 17 18 18 18 18 17 17 17 17 15 14 13 16 17
5 7 7 4 3 3 4 1 4 5 5 4 4 7 6 4 4 2 4 4 5 5 6 6 7 9 10 12 14 17 16 18 18 18 18 17 18 18 18 19 19 20 19 18 16 16 14 13 13 14 14 15 17 19
Wind_Direction
137 144 152 156 158 162 170 172 174 179 184 188 193 201 209 196 186 193 209 225 235 309 297 273 199 186 208 205 191 165 116 309 80 90 131 214 122 206 119 165 177 155 141 176 90 66 274 197 120 163 174 129 129 121
140 144 149 155 156 157 161 166 174 179 186 193 195 190 183 184 187 190 194 217 216 231 267 286 272 234 231 214 191 174 191 157 168 110 125 117 123 80 135 204 163 143 174 176 173 214 299 158 135 134 136 131 132 128
147 149 151 154 158 159 161 167 183 184 179 173 173 162 176 181 183 190 191 200 213 252 284 286 287 233 228 219 210 175 188 168 158 136 127 78 217 129 149 231 108 292 149 136 112 351 56 103 122 132 141 135 132 134
151 155 158 162 166 166 167 167 158 162 157 149 152 155 158 170 181 190 202 181 203 252 190 283 317 274 210 210 207 210 218 178 160 147 103 117 272 198 197 155 140 195 139 118 71 50 90 104 122 133 128 130 132 130
149 154 157 160 162 161 162 165 164 161 160 158 153 158 168 178 184 192 211 196 192 199 320 304 308 264 212 189 188 197 198 174 156 119 100 201 213 139 20 81 151 189 160 147 196 187 138 150 141 144 136 128 123 129
147 150 156 158 158 160 162 162 165 166 166 164 164 172 172 176 178 171 191 205 196 211 347 302 307 263 188 171 188 171 173 161 145 124 155 199 203 123 111 160 274 153 167 143 144 164 151 145 142 145 143 133 130 129
145 150 153 157 160 163 165 166 167 170 171 173 173 180 182 180 190 180 175 221 205 192 268 291 264 209 178 170 116 117 125 119 120 80 113 208 100 88 103 161 166 122 131 137 149 140 126 145 142 143 141 131 129 117
152 154 156 159 165 168 169 170 173 175 179 178 173 176 175 181 183 203 167 131 150 197 143 250 250 185 158 94 75 60 76 101 87 145 232 185 69 66 77 130 134 134 132 134 146 142 161 145 142 136 135 132 125 120
170 169 170 175 176 180 180 181 184 191 194 181 165 160 166 176 200 205 175 202 211 202 218 176 161 246 80 92 106 96 47 66 22 105 338 344 357 119 249 151 142 142 145 138 138 135 140 143 138 138 138 136 130 126
113 136 166 189 194 175 166 166 166 163 157 160 160 174 159 193 194 205 213 242 185 183 249 102 105 96 93 59 51 96 62 141 76 332 190 63 75 46 125 152 149 141 144 147 130 128 141 136 140 141 141 141 138 140
104 109 113 119 123 132 136 144 150 148 143 153 157 157 169 174 170 177 206 187 191 32 17 59 67 104 53 97 121 41 134 78 108 229 124 140 162 176 130 128 142 148 151 155 159 153 154 151 150 148 146 147 146 143
109 109 116 122 127 132 136 137 141 149 167 152 141 145 157 166 173 134 38 4 37 109 1 92 66 88 86 95 100 61 109 58 165 148 113 177 175 164 158 140 151 151 150 147 153 150 152 152 151 148 151 147 145 141
83 95 115 124 132 138 137 132 142 139 127 136 107 70 26 358 50 68 98 84 86 352 27 100 61 67 83 70 67 80 70 200 108 106 199 192 153 160 155 149 144 151 151 148 148 150 150 146 147 156 146 144 142 139
87 87 99 118 135 137 107 132 134 130 62 48 51 56 42 33 58 37 53 74 59 69 108 99 87 86 65 51 98 100 250 134 83 167 225 150 145 139 139 150 150 147 151 148 144 144 142 144 143 143 143 142 146 144
94 103 97 93 100 96 127 161 178 210 56 62 42 47 51 10 41 44 62 70 58 84 98 87 67 87 57 99 79 118 113 181 186 211 145 149 138 137 138 150 148 145 146 145 145 145 144 145 149 148 148 150 154 148
109 120 100 84 85 102 123 127 141 97 68 63 45 57 11 53 17 27 43 49 48 94 99 86 101 91 85 135 128 99 132 157 139 78 140 143 138 147 147 151 148 145 141 139 141 141 148 158 156 152 153 158 151 138
100 74 69 75 90 74 109 147 45 50 54 49 41 36 66 72 53 38 31 14 33 51 68 56 55 62 83 70 59 15 54 39 109 120 144 153 149 151 153 148 147 145 148 154 154 154 152 154 159 159 161 157 150 117
65 64 78 90 88 101 72 56 67 57 56 36 52 25 53 51 37 40 39 38 54 75 55 55 45 46 34 39 43 65 78 101 114 131 146 152 154 152 153 152 151 150 149 154 157 158 165 169 164 161 167 176 189 236
50 50 72 137 131 67 59 47 45 78 53 36 41 46 52 47 48 56 59 66 76 77 74 49 46 31 11 358 14 83 105 107 108 119 135 142 150 153 155 156 155 155 160 163 163 167 169 171 176 174 183 197 228 258
55 51 63 102 137 80 71 47 53 77 59 66 63 58 54 43 47 45 51 53 55 55 48 46 25 360 346 16 94 115 126 127 129 118 121 136 148 153 156 157 156 160 159 158 164 171 173 174 178 184 207 241 273 288
53 59 67 72 63 64 76 51 60 76 80 73 75 68 73 54 49 44 43 53 52 38 53 40 38 49 68 91 99 105 128 138 129 136 138 136 144 149 147 149 155 159 163 166 169 163 170 177 194 229 272 288 298 305
55 68 56 46 62 68 61 36 75 86 72 86 46 60 66 49 46 47 47 47 51 35 41 51 55 61 65 66 79 102 112 124 129 132 135 140 137 139 143 152 165 160 160 162 170 177 179 184 274 292 300 303 307 308
59 55 50 35 64 49 31 26 49 35 67 44 44 49 37 41 63 57 68 39 33 32 61 54 61 68 73 77 83 86 99 117 117 120 128 131 132 135 140 141 147 155 153 144 157 164 273 287 294 303 306 306 307 305
58 52 36 40 38 47 36 25 31 32 43 36 49 40 22 50 77 68 65 46 17 49 57 54 56 68 70 69 69 71 72 81 96 97 95 109 117 115 123 126 126 124 110 92 19 327 304 303 306 308 308 308 307 304
63 20 38 9 22 39 38 12 357 28 52 21 57 13 351 27 66 61 58 24 19 38 48 44 52 61 69 70 69 71 73 66 73 88 89 86 94 106 108 102 91 75 49 356 317 313 310 307 307 307 307 305 302 301
70 32 50 17 14 58 15 25 12 24 57 38 51 13 44 70 61 50 49 18 25 28 36 44 47 59 64 65 70 71 65 56 63 87 93 90 81 70 66 40 13 345 330 326 322 319 315 310 308 306 303 298 291 289
52 16 14 27 29 29 43 55 46 54 48 31 346 12 52 64 65 77 57 33 38 39 47 46 50 60 64 62 63 65 66 69 73 82 86 81 75 69 45 9 345 337 331 325 324 325 324 322 320 318 319 317 302 296
58 42 27 22 41 35 61 45 44 25 352 350 35 34 78 80 63 56 55 105 71 61 64 66 62 56 52 53 55 58 67 56 61 59 52 31 19 2 350 344 341 336 334 335 330 325 323 321 321 319 318 319 313 297
40 33 59 24 68 52 33 43 49 24 353 10 77 67 80 71 93 95 83 113 88 10 63 63 56 46 49 64 74 80 89 59 10 351 349 344 338 332 332 331 323 321 320 321 318 315 317 306 301 302 303 310 311 301
18 22 97 47 58 55 37 58 72 61 60 80 99 106 94 86 88 99 95 82 79 65 54 51 73 348 20 32 50 54 39 28 14 1 355 346 336 329 325 318 311 308 309 310 310 308 307 311 311 306 297 304 313 316
15 31 64 62 76 77 122 106 100 86 82 84 121 126 126 112 91 75 70 65 80 51 29 54 71 75 51 22 9 3 351 352 349 344 343 340 333 327 323 320 317 313 313 312 308 304 305 306 308 309 306 307 315 318
41 36 87 96 106 126 140 173 126 95 80 88 95 109 112 105 85 76 29 21 11 22 28 21 16 22 10 355 351 347 341 337 334 332 330 330 329 328 326 323 321 320 319 317 315 311 307 306 304 302 302 309 310 314
73 58 68 75 108 121 39 162 107 92 84 86 82 74 84 85 88 112 350 16 24 16 6 349 341 338 335 332 331 331 328 328 327 323 325 325 323 326 329 329 328 327 324 323 321 317 316 313 306 302 301 302 307 312
Height
1211 1221 1231 1241 1251 1260 1270 1279 1289 1298 1307 1317 1326 1334 1338 1351 1364 1376 1382 1382 1386 1394 1389 1390 1394 1395 1401 1402 1408 1411 1420 1420 1425 1435 1439 1447 1451 1445 1451 1448 1456 1461 1477 1490 1491 1497 1480 1449 1453 1462 1461 1463 1464 1466
1225 1233 1241 1250 1258 1266 1274 1283 1291 1299 1307 1315 1323 1330 1339 1352 1363 1375 1382 1389 1396 1400 1393 1390 1389 1390 1392 1396 1402 1405 1405 1407 1413 1424 1433 1438 1441 1449 1446 1460 1445 1454 1451 1464 1465 1466 1452 1448 1449 1453 1456 1459 1463 1464
1236 1243 1249 1257 1264 1271 1279 1286 1294 1299 1307 1314 1319 1327 1342 1354 1364 1373 1381 1388 1396 1400 1396 1389 1385 1385 1385 1388 1396 1399 1403 1403 1407 1410 1420 1429 1435 1436 1446 1449 1439 1438 1439 1447 1453 1460 1455 1452 1454 1456 1458 1459 1463 1465
1243 1249 1255 1262 1268 1276 1283 1289 1295 1303 1310 1318 1325 1335 1347 1357 1365 1374 1380 1383 1394 1396 1394 1385 1381 1380 1380 1383 1387 1392 1396 1400 1403 1407 1415 1427 1442 1421 1433 1426 1433 1432 1434 1443 1458 1461 1458 1458 1457 1457 1459 1462 1463 1464
1249 1254 1259 1265 1272 1279 1286 1293 1300 1308 1317 1325 1333 1342 1351 1359 1367 1375 1380 1384 1390 1399 1392 1386 1379 1378 1379 1381 1383 1387 1391 1395 1398 1406 1415 1425 1425 1419 1423 1426 1432 1424 1429 1441 1450 1444 1447 1455 1458 1460 1460 1462 1463 1464
1254 1259 1264 1270 1276 1284 1291 1298 1306 1314 1322 1330 1337 1344 1352 1359 1367 1375 1381 1383 1387 1392 1396 1391 1384 1378 1380 1381 1383 1385 1388 1393 1398 1402 1408 1414 1412 1412 1427 1436 1423 1420 1422 1425 1432 1439 1444 1451 1456 1459 1459 1462 1464 1465
1260 1265 1270 1276 1282 1288 1295 1302 1309 1317 1325 1332 1340 1347 1353 1360 1365 1368 1372 1374 1380 1392 1398 1394 1385 1374 1376 1381 1382 1388 1387 1390 1399 1406 1410 1413 1408 1409 1422 1428 1421 1421 1422 1426 1430 1436 1449 1452 1454 1458 1460 1463 1466 1468
1264 1269 1275 1280 1286 1292 1299 1305 1312 1320 1327 1335 1343 1348 1355 1360 1367 1371 1374 1378 1381 1394 1400 1392 1379 1374 1372 1371 1381 1384 1389 1395 1403 1410 1416 1410 1407 1411 1422 1417 1419 1422 1425 1431 1435 1437 1442 1449 1454 1458 1461 1464 1467 1471
1264 1269 1276 1280 1288 1295 1302 1309 1316 1322 1330 1337 1342 1350 1355 1359 1360 1364 1374 1377 1382 1389 1385 1377 1376 1371 1371 1380 1385 1390 1394 1402 1407 1407 1411 1411 1415 1420 1418 1417 1419 1422 1423 1430 1437 1440 1446 1450 1455 1459 1462 1466 1468 1473
1268 1271 1275 1279 1285 1292 1301 1307 1315 1324 1332 1337 1344 1348 1351 1350 1352 1362 1376 1376 1370 1376 1374 1370 1369 1374 1378 1381 1388 1394 1395 1405 1409 1410 1413 1415 1421 1420 1419 1420 1421 1424 1425 1431 1437 1446 1449 1453 1457 1462 1465 1468 1471 1474
1277 1280 1282 1285 1289 1295 1302 1309 1317 1326 1334 1338 1342 1346 1350 1355 1363 1370 1365 1367 1368 1373 1369 1370 1370 1371 1379 1384 1391 1393 1399 1406 1412 1412 1414 1417 1420 1421 1422 1423 1426 1427 1430 1435 1439 1443 1449 1451 1456 1461 1467 1470 1473 1475
1287 1289 1292 1293 1297 1302 1308 1316 1322 1329 1332 1333 1338 1345 1349 1355 1358 1360 1367 1367 1367 1372 1371 1371 1374 1377 1382 1385 1390 1397 1402 1407 1412 1409 1413 1418 1419 1419 1423 1426 1428 1430 1434 1438 1442 1444 1450 1455 1459 1463 1467 1471 1474 1477
1297 1298 1301 1303 1307 1312 1317 1322 1323 1329 1333 1336 1338 1341 1345 1353 1359 1367 1373 1372 1373 1373 1372 1372 1377 1380 1384 1387 1393 1397 1405 1412 1408 1413 1418 1416 1418 1421 1422 1424 1428 1432 1436 1439 1443 1447 1451 1457 1462 1465 1469 1472 1475 1477
1311 1311 1311 1314 1317 1321 1326 1329 1331 1334 1334 1336 1342 1356 1361 1367 1373 1374 1372 1373 1375 1375 1375 1377 1380 1384 1389 1392 1398 1401 1408 1407 1414 1414 1413 1414 1415 1419 1424 1427 1430 1434 1437 1441 1446 1450 1454 1459 1464 1468 1471 1474 1476 1477
1320 1322 1323 1325 1329 1331 1332 1334 1336 1337 1338 1346 1355 1367 1373 1375 1374 1373 1372 1374 1376 1378 1379 1380 1383 1386 1393 1396 1400 1404 1408 1406 1413 1412 1412 1415 1419 1422 1426 1430 1432 1436 1440 1443 1448 1453 1457 1462 1465 1469 1472 1474 1476 1477
1328 1328 1328 1330 1331 1333 1335 1336 1337 1340 1352 1363 1374 1377 1378 1377 1378 1378 1379 1380 1380 1380 1381 1383 1387 1391 1397 1397 1397 1401 1404 1402 1409 1411 1413 1417 1421 1425 1429 1432 1436 1440 1443 1447 1452 1456 1460 1464 1466 1468 1471 1473 1474 1475
1332 1332 1335 1335 1336 1336 1335 1337 1340 1352 1365 1374 1384 1384 1384 1386 1387 1386 1384 1383 1382 1383 1385 1386 1389 1396 1397 1398 1404 1408 1410 1412 1412 1414 1416 1419 1423 1427 1431 1435 1439 1443 1447 1450 1454 1459 1462 1465 1467 1469 1470 1472 1473 1473
1338 1341 1341 1341 1340 1339 1339 1345 1358 1371 1382 1387 1388 1389 1388 1389 1389 1388 1386 1384 1384 1385 1388 1394 1397 1404 1411 1408 1412 1415 1416 1415 1416 1417 1419 1423 1427 1431 1435 1438 1442 1446 1449 1453 1457 1460 1463 1465 1467 1468 1470 1470 1472 1472
1345 1344 1343 1343 1344 1344 1353 1365 1371 1384 1393 1393 1394 1393 1393 1395 1394 1392 1390 1389 1388 1388 1393 1404 1412 1417 1420 1420 1418 1417 1418 1418 1420 1422 1425 1429 1432 1434 1438 1441 1445 1448 1452 1455 1457 1460 1463 1466 1468 1468 1469 1470 1471 1471
1349 1348 1345 1345 1346 1350 1366 1378 1382 1390 1398 1402 1402 1401 1402 1404 1402 1399 1396 1395 1395 1399 1411 1422 1430 1431 1426 1423 1422 1422 1422 1423 1424 1427 1432 1435 1437 1439 1442 1444 1447 1450 1453 1456 1459 1462 1463 1465 1466 1468 1468 1468 1468 1467
1355 1353 1352 1350 1350 1361 1378 1387 1392 1399 1403 1405 1408 1407 1412 1412 1409 1408 1407 1409 1409 1424 1432 1437 1436 1433 1429 1426 1426 1427 1428 1430 1431 1433 1435 1438 1441 1443 1446 1448 1450 1452 1454 1457 1459 1461 1463 1464 1465 1466 1467 1466 1465 1464
1358 1358 1357 1360 1367 1378 1390 1396 1399 1403 1406 1409 1410 1412 1415 1417 1419 1421 1424 1422 1435 1442 1443 1443 1441 1438 1434 1433 1433 1432 1434 1435 1437 1439 1442 1444 1445 1448 1450 1452 1453 1455 1457 1459 1461 1462 1463 1463 1464 1464 1464 1463 1462 1460
1363 1363 1368 1376 1381 1392 1405 1404 1405 1408 1411 1413 1415 1418 1421 1423 1426 1429 1438 1449 1453 1452 1450 1449 1447 1445 1443 1442 1441 1440 1441 1441 1442 1445 1447 1448 1450 1452 1453 1455 1457 1458 1459 1460 1461 1462 1462 1463 1463 1462 1461 1459 1458 1456
1370 1376 1387 1394 1401 1409 1411 1411 1413 1415 1416 1418 1422 1427 1428 1429 1433 1441 1453 1462 1463 1458 1455 1454 1453 1451 1450 1448 1448 1449 1450 1451 1451 1452 1454 1454 1455 1456 1457 1458 1459 1460 1461 1462 1462 1462 1462 1461 1460 1459 1457 1455 1454 1452
1383 1406 1409 1414 1416 1417 1421 1423 1423 1422 1430 1428 1432 1433 1433 1433 1442 1453 1462 1468 1466 1463 1461 1460 1458 1456 1456 1457 1457 1457 1457 1457 1457 1457 1458 1458 1459 1459 1460 1461 1461 1462 1462 1462 1461 1460 1459 1458 1457 1455 1453 1451 1450 1449
1409 1422 1424 1425 1427 1427 1430 1431 1432 1431 1433 1437 1436 1436 1435 1443 1458 1466 1470 1472 1470 1468 1466 1465 1463 1462 1461 1461 1461 1461 1462 1462 1461 1460 1461 1462 1462 1463 1463 1463 1463 1463 1462 1461 1459 1458 1456 1455 1453 1451 1450 1448 1446 1445
1428 1432 1431 1431 1431 1431 1431 1433 1435 1437 1441 1442 1443 1443 1443 1463 1470 1474 1475 1474 1473 1472 1470 1469 1468 1467 1467 1466 1466 1466 1465 1465 1464 1464 1464 1464 1464 1464 1464 1464 1463 1462 1460 1459 1457 1455 1453 1451 1450 1447 1446 1444 1443 1441
1435 1437 1438 1437 1436 1436 1439 1442 1447 1450 1449 1447 1446 1457 1465 1471 1476 1477 1477 1476 1476 1475 1473 1473 1472 1471 1469 1469 1469 1469 1468 1468 1467 1467 1467 1467 1465 1464 1463 1462 1461 1460 1458 1456 1454 1452 1450 1448 1446 1444 1442 1441 1439 1438
1440 1441 1441 1441 1441 1445 1449 1450 1454 1456 1455 1452 1456 1464 1471 1476 1478 1478 1478 1478 1478 1477 1475 1474 1474 1474 1473 1473 1472 1471 1471 1470 1470 1469 1468 1466 1465 1465 1463 1461 1459 1457 1455 1453 1451 1449 1447 1445 1443 1441 1439 1437 1435 1433
1445 1444 1444 1447 1450 1455 1458 1457 1459 1459 1458 1457 1460 1470 1474 1478 1479 1479 1479 1479 1478 1477 1477 1477 1476 1476 1475 1475 1474 1474 1473 1472 1471 1470 1468 1466 1465 1463 1461 1458 1456 1454 1451 1449 1447 1445 1443 1441 1439 1437 1435 1433 1431 1430
1448 1447 1449 1453 1458 1460 1461 1462 1463 1463 1462 1463 1465 1468 1473 1478 1481 1481 1481 1481 1481 1480 1480 1478 1478 1477 1477 1476 1475 1474 1472 1471 1470 1468 1466 1465 1462 1460 1457 1454 1452 1449 1447 1445 1442 1440 1438 1436 1434 1432 1430 1428 1427 1425
1451 1452 1453 1457 1461 1462 1463 1463 1464 1467 1469 1471 1473 1475 1477 1479 1481 1483 1483 1483 1482 1481 1480 1479 1479 1478 1477 1476 1475 1473 1472 1470 1468 1465 1463 1461 1459 1456 1453 1451 1448 1446 1443 1440 1438 1435 1433 1430 1429 1427 1426 1425 1423 1421
1455 1456 1456 1458 1461 1462 1463 1463 1464 1468 1471 1473 1476 1476 1477 1480 1482 1484 1484 1483 1483 1482 1481 1480 1479 1478 1477 1475 1474 1472 1470 1467 1465 1462 1460 1458 1455 1453 1450 1447 1445 1442 1439 1437 1434 1432 1429 1427 1425 1423 1422 1420 1419 1417